Location: Newark
(44.2003°N, 3.2583°E)
Time: 07:16:11
(UTC+00:00)

A-11 Canister half - Visible Passes

Search period start: 16 October 2019 00:00
Search period end: 26 October 2019 00:00
Orbit: 1514 x 1686 km, 47.2° (Epoch: 14 October)

Date Brightness Start Highest point End Pass type
(mag) Time Alt. Az. Time Alt. Az. Time Alt. Az.
16 Oct 10.4 01:25:02 27° ESE 01:25:02 27° ESE 01:30:17 10° ENE visible
16 Oct 9.0 03:23:14 50° SW 03:26:18 75° SSE 03:35:48 10° ENE visible
16 Oct 9.1 05:21:44 10° W 05:31:30 75° N 05:40:55 10° E visible
17 Oct 10.6 01:03:33 21° E 01:03:33 21° E 01:07:16 10° ENE visible
17 Oct 9.0 03:01:45 63° SSW 03:03:22 73° SSE 03:12:53 10° ENE visible
17 Oct 9.1 04:59:57 15° W 05:08:32 76° N 05:17:59 10° E visible
18 Oct 10.9 00:42:00 17° E 00:42:00 17° E 00:44:14 10° ENE visible
18 Oct 9.0 02:40:13 70° SSE 02:40:27 70° SSE 02:49:58 10° ENE visible
18 Oct 9.1 04:38:26 21° W 04:45:35 76° N 04:55:03 10° E visible
19 Oct 11.1 00:20:27 12° E 00:20:27 12° E 00:21:10 10° E visible
19 Oct 9.2 02:18:39 63° ESE 02:18:39 63° ESE 02:27:03 10° ENE visible
19 Oct 9.0 04:16:51 29° W 04:22:37 77° N 04:32:07 10° ENE visible
20 Oct 9.5 01:57:03 51° E 01:57:03 51° E 02:04:08 10° ENE visible
20 Oct 9.0 03:55:16 39° W 03:59:39 78° N 04:09:11 10° ENE visible
21 Oct 9.9 01:35:28 40° E 01:35:28 40° E 01:41:13 10° ENE visible
21 Oct 9.0 03:33:40 51° W 03:36:41 79° N 03:46:16 10° ENE visible
21 Oct 9.1 05:32:27 10° WNW 05:42:13 81° NNE 05:51:38 10° ESE visible
22 Oct 10.3 01:13:51 31° E 01:13:51 31° E 01:18:17 10° ENE visible
22 Oct 8.9 03:12:02 65° W 03:13:44 80° NNW 03:23:21 10° ENE visible
22 Oct 9.1 05:10:14 13° WNW 05:19:17 80° NNE 05:28:43 10° E visible
23 Oct 10.6 00:52:13 23° ENE 00:52:13 23° ENE 00:55:21 10° ENE visible
23 Oct 8.9 02:50:25 80° NW 02:50:46 81° NNW 03:00:25 10° ENE visible
23 Oct 9.1 04:48:37 19° WNW 04:56:20 79° N 05:05:47 10° E visible
24 Oct 10.9 00:30:35 17° ENE 00:30:35 17° ENE 00:32:25 10° ENE visible
24 Oct 9.0 02:28:47 75° NE 02:28:47 75° NE 02:37:29 10° ENE visible
24 Oct 9.1 04:26:59 25° WNW 04:33:22 78° N 04:42:51 10° E visible
25 Oct 11.1 00:08:58 12° ENE 00:08:58 12° ENE 00:09:29 10° ENE visible
25 Oct 9.4 02:07:09 59° ENE 02:07:09 59° ENE 02:14:34 10° ENE visible
25 Oct 9.0 04:05:21 34° WNW 04:10:25 77° N 04:19:55 10° E visible
